Terminal Aerodrome Forecast
Issued by NWS

Home | Current Version | Previous Version | Text Only | Print | Product List | Glossary On
Versions: 1 2 3 4 5 6 7 8 9 10 11 12 13 14 15
896
FTPA31 PHFO 240628 AAA
TAFHTO
TAF AMD
PHTO 240628Z 2406/2506 24006KT 5SM -SHRA SCT025 OVC040
      TEMPO 2406/2408 2SM +RA BR
     FM242000 08010KT P6SM VCSH FEW025 BKN040
     FM250500 22008KT P6SM VCSH FEW025 BKN035=

USA.gov is the U.S. government's official web portal to all federal, state and local government web resources and services.